Location: DARK SKY Beskydy - Park tmavé oblohy, www.darkskybeskydy.cz
(49.4926°N, 18.5016°E)
Time: 03:08:11
(UTC+01:00)

N. Korean satellite - Pass Details

Date: 11 December 2022
Orbit: 407 x 442 km, 97.3° (Epoch: 05 February)

Event Time Altitude Azimuth Distance (km) Brightness Sun altitude
Rises 06:05:42 0° 1° (N) 2,500 10.0 -13.2°
Reaches altitude 10° 06:08:03 10° 347° (NNW) 1,611 8.9 -12.8°
Maximum altitude 06:10:48 22° 294° (WNW) 1,031 7.6 -12.4°
Drops below altitude 10° 06:13:29 10° 241° (WSW) 1,576 8.8 -12.0°
Sets 06:15:46 0° 226° (SW) 2,430 9.9 -11.6°
